When you browse on this site, cookies collect data to enhance your experience and personalize the content and advertising you see.
Visit our Privacy Policy to learn more. By continuing to use the site, you agree to this use of cookies and data.
  • En España
  • Lista de países
  • Para 7 días
  • Temperatura del agua
  • Mapa Satelital
  • El tiempo en el mapa
  • Informadores
  • user-avatar
    Iniciar sesión

    Tiempo cada hora Donec

    Hoy, 19 Julio, Viernes

    Tiempo Temperatura Precipitaciones Viento Presión Humedad
    00:00 +13°C° 1.4 mm 3 mps 732 mmHg 98%
    01:00 +13°C° 1.4 mm 3 mps 732 mmHg 98%
    02:00 +13°C° 1.4 mm 3 mps 732 mmHg 98%
    03:00 +13°C° 0.2 mm 3 mps 733 mmHg 98%
    04:00 +13°C° 0.2 mm 3 mps 733 mmHg 98%
    05:00 +14°C° 0.2 mm 2 mps 733 mmHg 98%
    06:00 +13°C° 0.7 mm 3 mps 734 mmHg 98%
    07:00 +13°C° 0.7 mm 3 mps 734 mmHg 97%
    08:00 +14°C° 0.7 mm 4 mps 734 mmHg 97%
    09:00 +14°C° 0.3 mm 4 mps 735 mmHg 96%
    10:00 +14°C° 0.3 mm 4 mps 735 mmHg 95%
    11:00 +15°C° 0.3 mm 4 mps 735 mmHg 94%
    12:00 +15°C° 0.5 mm 4 mps 736 mmHg 91%
    13:00 +16°C° 0.5 mm 5 mps 736 mmHg 89%
    14:00 +16°C° 0.5 mm 5 mps 736 mmHg 87%
    15:00 +16°C° 0.2 mm 5 mps 736 mmHg 85%
    16:00 +17°C° 0.2 mm 5 mps 736 mmHg 84%
    17:00 +17°C° 0.2 mm 5 mps 737 mmHg 83%
    18:00 +17°C° 0 mm 4 mps 737 mmHg 83%
    19:00 +15°C° 0 mm 4 mps 737 mmHg 84%
    20:00 +16°C° 0 mm 3 mps 737 mmHg 84%
    21:00 +14°C° 0 mm 3 mps 737 mmHg 86%
    22:00 +14°C° 0 mm 3 mps 738 mmHg 87%
    23:00 +13°C° 0 mm 3 mps 738 mmHg 89%

    Mañana, 20 Julio, Sábado

    Tiempo Temperatura Precipitaciones Viento Presión Humedad
    00:00 +13°C° 0 mm 3 mps 738 mmHg 91%
    01:00 +12°C° 0 mm 3 mps 738 mmHg 93%
    02:00 +12°C° 0 mm 3 mps 739 mmHg 95%
    03:00 +12°C° 0 mm 3 mps 739 mmHg 95%
    04:00 +12°C° 0 mm 3 mps 739 mmHg 95%
    05:00 +12°C° 0 mm 3 mps 739 mmHg 95%
    06:00 +13°C° 0 mm 3 mps 740 mmHg 91%
    07:00 +14°C° 0 mm 3 mps 740 mmHg 86%
    08:00 +17°C° 0 mm 3 mps 740 mmHg 82%
    09:00 +17°C° 0.1 mm 3 mps 741 mmHg 80%
    10:00 +18°C° 0.1 mm 3 mps 741 mmHg 79%
    11:00 +19°C° 0.1 mm 3 mps 741 mmHg 77%
    12:00 +20°C° 0.5 mm 4 mps 741 mmHg 76%
    13:00 +20°C° 0.5 mm 4 mps 741 mmHg 76%
    14:00 +21°C° 0.5 mm 4 mps 741 mmHg 75%
    15:00 +21°C° 0.3 mm 4 mps 741 mmHg 75%
    16:00 +21°C° 0.3 mm 4 mps 742 mmHg 74%
    17:00 +21°C° 0.3 mm 4 mps 742 mmHg 74%
    18:00 +20°C° 0.1 mm 3 mps 742 mmHg 78%
    19:00 +18°C° 0.1 mm 3 mps 742 mmHg 83%
    20:00 +17°C° 0.1 mm 2 mps 742 mmHg 88%
    21:00 +16°C° 0 mm 2 mps 742 mmHg 90%
    22:00 +15°C° 0 mm 2 mps 742 mmHg 92%
    23:00 +14°C° 0 mm 2 mps 743 mmHg 94%

    Pasado mañana, 21 Julio, Domingo

    Tiempo Temperatura Precipitaciones Viento Presión Humedad
    00:00 +14°C° 0 mm 2 mps 743 mmHg 95%
    01:00 +13°C° 0 mm 1 mps 743 mmHg 95%
    02:00 +13°C° 0 mm 1 mps 743 mmHg 95%
    03:00 +13°C° 0 mm 1 mps 743 mmHg 95%
    04:00 +13°C° 0 mm 1 mps 743 mmHg 94%
    05:00 +13°C° 0 mm 1 mps 743 mmHg 94%
    06:00 +15°C° 0 mm 1 mps 743 mmHg 87%
    07:00 +18°C° 0 mm 1 mps 743 mmHg 80%
    08:00 +20°C° 0 mm 1 mps 744 mmHg 73%
    09:00 +21°C° 0 mm 2 mps 744 mmHg 67%
    10:00 +23°C° 0 mm 2 mps 744 mmHg 62%
    11:00 +24°C° 0 mm 2 mps 744 mmHg 57%
    12:00 +25°C° 0 mm 3 mps 744 mmHg 55%
    13:00 +25°C° 0 mm 3 mps 744 mmHg 53%
    14:00 +26°C° 0 mm 3 mps 743 mmHg 52%
    15:00 +25°C° 0 mm 3 mps 743 mmHg 55%
    16:00 +25°C° 0 mm 2 mps 743 mmHg 58%
    17:00 +25°C° 0 mm 2 mps 743 mmHg 61%
    18:00 +23°C° 0 mm 1 mps 743 mmHg 69%
    19:00 +21°C° 0 mm 1 mps 743 mmHg 77%
    20:00 +16°C° 0 mm 0 mps 743 mmHg 85%
    21:00 +16°C° 0 mm 0 mps 743 mmHg 86%
    22:00 +15°C° 0 mm 0 mps 743 mmHg 88%
    23:00 +14°C° 0 mm 0 mps 743 mmHg 89%

    22 Julio, Lunes

    Tiempo Temperatura Precipitaciones Viento Presión Humedad
    00:00 +15°C° 0 mm 1 mps 743 mmHg 90%
    01:00 +15°C° 0 mm 1 mps 743 mmHg 91%
    02:00 +15°C° 0 mm 1 mps 743 mmHg 91%
    03:00 +15°C° 0 mm 1 mps 742 mmHg 91%
    04:00 +15°C° 0 mm 1 mps 742 mmHg 91%
    05:00 +15°C° 0 mm 1 mps 742 mmHg 90%
    06:00 +18°C° 0 mm 1 mps 742 mmHg 85%
    07:00 +20°C° 0 mm 1 mps 742 mmHg 80%
    08:00 +20°C° 0 mm 2 mps 742 mmHg 75%
    09:00 +21°C° 0.6 mm 2 mps 741 mmHg 78%
    10:00 +21°C° 0.6 mm 2 mps 741 mmHg 80%
    11:00 +23°C° 0.6 mm 2 mps 741 mmHg 83%
    12:00 +23°C° 0.9 mm 2 mps 741 mmHg 84%
    13:00 +23°C° 0.9 mm 1 mps 741 mmHg 85%
    14:00 +22°C° 0.9 mm 1 mps 740 mmHg 86%
    15:00 +21°C° 0.5 mm 1 mps 740 mmHg 88%
    16:00 +20°C° 0.5 mm 1 mps 740 mmHg 90%
    17:00 +19°C° 0.5 mm 1 mps 740 mmHg 92%
    18:00 +19°C° 0.8 mm 1 mps 740 mmHg 94%
    19:00 +17°C° 0.8 mm 2 mps 740 mmHg 96%
    20:00 +17°C° 0.8 mm 2 mps 740 mmHg 98%
    21:00 +17°C° 1.2 mm 2 mps 740 mmHg 98%
    22:00 +17°C° 1.2 mm 2 mps 740 mmHg 98%
    23:00 +17°C° 1.2 mm 2 mps 740 mmHg 98%

    23 Julio, Martes

    Tiempo Temperatura Precipitaciones Viento Presión Humedad
    00:00 +16°C° 1.4 mm 2 mps 739 mmHg 98%
    01:00 +16°C° 1.4 mm 2 mps 739 mmHg 99%
    02:00 +16°C° 1.4 mm 3 mps 739 mmHg 99%
    03:00 +16°C° 1.1 mm 3 mps 739 mmHg 98%
    04:00 +16°C° 1.1 mm 3 mps 739 mmHg 98%
    05:00 +15°C° 1.1 mm 4 mps 739 mmHg 98%
    06:00 +14°C° 0.3 mm 4 mps 740 mmHg 97%
    07:00 +14°C° 0.3 mm 3 mps 740 mmHg 97%
    08:00 +14°C° 0.3 mm 3 mps 740 mmHg 96%
    09:00 +14°C° 0.2 mm 3 mps 740 mmHg 96%
    10:00 +14°C° 0.2 mm 3 mps 740 mmHg 96%
    11:00 +14°C° 0.2 mm 3 mps 741 mmHg 95%
    12:00 +16°C° 0.1 mm 3 mps 741 mmHg 95%
    13:00 +16°C° 0.1 mm 3 mps 741 mmHg 94%
    14:00 +16°C° 0.1 mm 3 mps 741 mmHg 93%
    15:00 +17°C° 0 mm 3 mps 741 mmHg 90%
    16:00 +17°C° 0 mm 3 mps 741 mmHg 87%
    17:00 +18°C° 0 mm 3 mps 742 mmHg 83%
    18:00 +17°C° 0.1 mm 3 mps 742 mmHg 83%
    19:00 +17°C° 0.1 mm 3 mps 742 mmHg 84%
    20:00 +17°C° 0.1 mm 3 mps 742 mmHg 84%
    21:00 +16°C° 0 mm 3 mps 742 mmHg 84%
    22:00 +16°C° 0 mm 3 mps 742 mmHg 84%
    23:00 +16°C° 0 mm 3 mps 742 mmHg 84%

    24 Julio, Miércoles

    Tiempo Temperatura Precipitaciones Viento Presión Humedad
    00:00 +14°C° 0 mm 3 mps 742 mmHg 86%
    01:00 +13°C° 0 mm 3 mps 742 mmHg 88%
    02:00 +12°C° 0 mm 3 mps 742 mmHg 90%
    03:00 +12°C° 0 mm 3 mps 742 mmHg 89%
    04:00 +12°C° 0 mm 3 mps 742 mmHg 88%
    05:00 +12°C° 0 mm 3 mps 742 mmHg 87%
    06:00 +14°C° 0 mm 4 mps 742 mmHg 79%
    07:00 +15°C° 0 mm 4 mps 742 mmHg 72%
    08:00 +18°C° 0 mm 4 mps 742 mmHg 65%
    09:00 +19°C° 0 mm 5 mps 742 mmHg 58%
    10:00 +21°C° 0 mm 5 mps 742 mmHg 51%
    11:00 +22°C° 0 mm 5 mps 742 mmHg 45%
    12:00 +23°C° 0 mm 5 mps 742 mmHg 45%
    13:00 +23°C° 0 mm 5 mps 742 mmHg 45%
    14:00 +25°C° 0 mm 5 mps 742 mmHg 46%
    15:00 +23°C° 0 mm 4 mps 742 mmHg 51%
    16:00 +23°C° 0 mm 4 mps 742 mmHg 56%
    17:00 +22°C° 0 mm 3 mps 742 mmHg 61%
    18:00 +20°C° 0 mm 3 mps 742 mmHg 66%
    19:00 +19°C° 0 mm 3 mps 742 mmHg 72%
    20:00 +17°C° 0 mm 3 mps 741 mmHg 77%
    21:00 +17°C° 0 mm 3 mps 741 mmHg 80%
    22:00 +16°C° 0 mm 3 mps 741 mmHg 83%
    23:00 +14°C° 0 mm 3 mps 741 mmHg 86%
    Mostrar más